Location: Unspecified
(0.0000°N, 0.0000°E)
Time: 09:35:16
(UTC+00:00)

Altair - Pass Details

Date: 01 October 2023
Orbit: 1501 x 1682 km, 47.2° (Epoch: 06 December)

Event Time Altitude Azimuth Distance (km) Brightness Sun altitude
Rises 00:11:23 0° 242° (WSW) 4,656 - -83.9°
Reaches altitude 10° 00:14:47 10° 251° (WSW) 3,690 - -83.1°
Maximum altitude 00:22:50 33° 311° (NW) 2,387 - -81.2°
Drops below altitude 10° 00:31:10 10° 12° (NNE) 3,799 - -79.3°
Sets 00:34:47 0° 22° (NNE) 4,812 - -78.4°
